K5VP Weather Reports


Display with metric or nautical units.
time (UTC)temp
F
wind
direction
speed
MPH
gust
MPH
rain 1hr
in
rain 24hr
in
rain mn
in
humidity
%
barometer
mb
20260509122356 54 184 0.0 0.0 0.00 0.00 0.00 95 1011.4
20260509121849 54 184 0.0 0.0 0.00 0.00 0.00 95 1011.4
20260509121356 54 144 0.0 0.0 0.00 0.00 0.00 95 1011.6
20260509120850 53 131 0.0 0.0 0.00 0.00 0.00 95 1011.4
20260509120329 53 115 0.0 0.0 0.00 0.00 0.00 95 1011.2
20260509115833 53 114 0.0 0.0 0.00 0.00 0.00 95 1011.2
20260509115312 53 193 0.0 0.0 0.00 0.00 0.00 95 1011.0
20260509114806 52 193 0.0 0.0 0.00 0.00 0.00 95 1011.0
20260509114308 52 195 0.0 0.0 0.00 0.00 0.00 94 1010.9
20260509113808 52 199 0.0 0.0 0.00 0.00 0.00 94 1010.8
20260509113304 52 200 0.0 0.0 0.00 0.00 0.00 94 1010.7
20260509112750 52 200 0.0 0.0 0.00 0.00 0.00 94 1010.7
20260509112237 52 201 0.0 0.0 0.00 0.00 0.00 94 1010.6
20260509111733 52 201 0.0 0.0 0.00 0.00 0.00 94 1010.6
20260509111211 52 203 0.0 0.0 0.00 0.00 0.00 94 1010.5
20260509110655 52 203 0.0 0.0 0.00 0.00 0.00 94 1010.4
20260509110156 52 203 0.0 0.0 0.00 0.00 0.00 94 1010.4
20260509105701 52 204 0.0 0.0 0.00 0.00 0.00 94 1010.2
20260509105144 52 205 0.0 0.0 0.00 0.00 0.00 94 1010.1
20260509104644 52 205 0.0 0.0 0.00 0.00 0.00 94 1010.1
20260509104135 52 205 0.0 0.0 0.00 0.00 0.00 94 1010.1
20260509103632 53 206 0.0 0.0 0.00 0.00 0.00 94 1010.1
20260509103133 53 207 0.0 0.0 0.00 0.00 0.00 94 1010.2
20260509102615 53 206 0.0 0.0 0.00 0.00 0.00 94 1010.2
20260509102116 53 206 0.0 0.0 0.00 0.00 0.00 93 1010.2
20260509101620 53 206 0.0 0.0 0.00 0.00 0.00 93 1010.2
20260509101127 53 206 0.0 0.0 0.00 0.00 0.00 93 1010.2
20260509100628 53 206 0.0 0.0 0.00 0.00 0.00 93 1010.4
20260509100130 53 207 0.0 0.0 0.00 0.00 0.00 93 1010.2
20260509095637 53 206 0.0 0.0 0.00 0.00 0.00 93 1010.2
20260509095134 53 207 0.0 0.0 0.00 0.00 0.00 93 1010.1
20260509094615 53 207 0.0 0.0 0.00 0.00 0.00 92 1010.1
20260509094117 53 206 0.0 0.0 0.00 0.00 0.00 92 1010.1
20260509093558 53 206 0.0 0.0 0.00 0.00 0.00 92 1010.1
20260509093104 53 206 0.0 0.0 0.00 0.00 0.00 92 1010.0
20260509092542 53 206 0.0 0.0 0.00 0.00 0.00 91 1009.9
20260509092043 53 206 0.0 0.0 0.00 0.00 0.00 91 1010.0
20260509091549 54 206 0.0 0.0 0.00 0.00 0.00 91 1010.0
20260509091051 54 206 0.0 0.0 0.00 0.00 0.00 91 1010.0
20260509090544 54 207 0.0 0.0 0.00 0.00 0.00 90 1010.0
20260509090032 54 206 0.0 0.0 0.00 0.00 0.00 90 1010.1
20260509085515 54 206 0.0 0.0 0.00 0.00 0.00 90 1010.1
20260509085008 54 206 0.0 0.0 0.00 0.00 0.00 90 1010.2
20260509084501 55 206 0.0 0.0 0.00 0.00 0.00 90 1010.2
20260509084000 55 207 0.0 0.0 0.00 0.00 0.00 89 1010.3
20260509083500 55 206 0.0 0.0 0.00 0.00 0.00 90 1010.3
20260509083001 55 206 0.0 0.0 0.00 0.00 0.00 89 1010.4
20260509082445 55 206 0.0 0.0 0.00 0.00 0.00 89 1010.4
20260509081944 55 206 0.0 0.0 0.00 0.00 0.00 88 1010.5
20260509081430 55 206 0.0 0.0 0.00 0.00 0.00 88 1010.4
20260509080916 56 207 0.0 0.0 0.00 0.00 0.00 87 1010.3
20260509080412 56 207 0.0 0.0 0.00 0.00 0.00 87 1010.4
20260509075918 56 206 0.0 0.0 0.00 0.00 0.00 86 1010.4
20260509075420 56 206 0.0 0.0 0.00 0.00 0.00 86 1010.3
20260509074403 57 206 0.0 0.0 0.00 0.00 0.00 85 1010.5
20260509073740 57 207 0.0 0.0 0.00 0.00 0.00 84 1010.4
20260509073114 57 206 0.0 0.0 0.00 0.00 0.00 85 1010.5
20260509072455 57 134 0.0 0.0 0.00 0.00 0.00 85 1010.4
20260509071833 57 134 0.0 0.0 0.00 0.00 0.00 86 1010.7
20260509071221 57 135 0.0 0.0 0.00 0.00 0.00 85 1010.4
20260509070608 57 134 0.0 0.0 0.00 0.00 0.00 85 1010.4
20260509065939 57 134 0.0 0.0 0.00 0.00 0.00 86 1010.4
20260509065310 56 134 0.0 0.0 0.00 0.00 0.00 86 1010.7
20260509064635 56 134 0.0 0.0 0.00 0.00 0.00 85 1010.6
20260509064011 56 134 0.0 0.0 0.00 0.00 0.00 86 1010.7
20260509063345 56 135 0.0 0.0 0.00 0.00 0.00 86 1010.6
20260509062726 56 134 0.0 0.0 0.00 0.00 0.00 86 1010.5
20260509062113 56 134 0.0 0.0 0.00 0.00 0.00 86 1010.5
20260509061441 55 135 0.0 0.0 0.00 0.00 0.00 87 1010.3
20260509060805 55 134 0.0 0.0 0.00 0.00 0.00 87 1010.9
20260509060133 55 135 0.0 0.0 0.00 0.00 0.00 87 1011.1
20260509055517 55 135 0.0 0.0 0.00 0.00 0.00 87 1011.3
20260509054853 55 134 0.0 0.0 0.00 0.00 0.00 87 1011.4
20260509054241 55 134 0.0 0.0 0.00 0.00 0.00 87 1011.5
20260509053606 55 134 0.0 0.0 0.00 0.00 0.00 86 1011.6
20260509052948 55 134 0.0 0.0 0.00 0.00 0.00 86 1011.8
20260509052335 55 135 0.0 0.0 0.00 0.00 0.00 86 1011.7
20260509051726 55 134 0.0 0.0 0.00 0.00 0.00 86 1011.7
20260509051106 55 134 0.0 0.0 0.00 0.00 0.00 86 1011.7
20260509050459 55 135 0.0 0.0 0.00 0.00 0.00 86 1011.6
20260509045838 55 134 0.0 0.0 0.00 0.00 0.00 85 1011.5
20260509045219 55 134 0.0 0.0 0.00 0.00 0.00 85 1011.5
20260509044552 55 134 0.0 0.0 0.00 0.00 0.00 85 1011.6
20260509043937 55 134 0.0 0.0 0.00 0.00 0.00 85 1011.8
20260509043330 55 134 0.0 0.0 0.00 0.00 0.00 85 1011.9
20260509042702 55 135 0.0 0.0 0.00 0.00 0.00 85 1011.7
20260509042026 55 134 0.0 0.0 0.00 0.00 0.00 85 1011.6
20260509041403 55 134 0.0 0.0 0.00 0.00 0.00 84 1011.5
20260509040730 55 134 0.0 0.0 0.00 0.00 0.00 83 1011.4
20260509040053 55 135 0.0 0.0 0.00 0.00 0.00 82 1011.4
20260509035444 55 134 0.0 0.0 0.00 0.00 0.00 82 1011.3
20260509034809 56 134 0.0 0.0 0.00 0.00 0.00 81 1011.4
20260509034146 56 134 0.0 0.0 0.00 0.00 0.00 80 1011.3
20260509033512 56 134 0.0 0.0 0.00 0.00 0.00 80 1011.5
20260509032841 56 134 0.0 0.0 0.00 0.00 0.00 80 1011.5
20260509032211 56 134 0.0 0.0 0.00 0.00 0.00 79 1011.8
20260509031558 56 134 0.0 0.0 0.00 0.00 0.00 79 1011.8
20260509030922 56 134 0.0 0.0 0.00 0.00 0.00 79 1011.8
20260509030250 56 134 0.0 0.0 0.00 0.00 0.00 78 1011.5
20260509025614 57 134 0.0 0.0 0.00 0.00 0.00 77 1011.6
20260509024956 57 134 0.0 0.0 0.00 0.00 0.00 78 1011.4
20260509024345 57 134 0.0 0.0 0.00 0.00 0.00 77 1011.3
20260509023725 58 134 0.0 0.0 0.00 0.00 0.00 77 1011.4
20260509023100 58 135 0.0 0.0 0.00 0.00 0.00 76 1011.4
20260509022439 58 134 0.0 0.0 0.00 0.00 0.00 74 1011.3
20260509021823 58 134 0.0 0.0 0.00 0.00 0.00 71 1011.3
20260509021158 58 134 0.0 0.0 0.00 0.00 0.00 71 1011.3
20260509020546 59 134 0.0 0.0 0.00 0.00 0.00 70 1011.2
20260509015922 59 134 0.0 0.0 0.00 0.00 0.00 68 1011.2
20260509015253 59 134 0.0 0.0 0.00 0.00 0.00 67 1011.2
20260509014619 59 134 0.0 0.0 0.00 0.00 0.00 67 1011.3
20260509013959 60 134 0.0 0.0 0.00 0.00 0.00 67 1011.4
20260509013324 60 134 0.0 0.0 0.00 0.00 0.00 67 1011.3
20260509012647 61 134 0.0 0.0 0.00 0.00 0.00 67 1011.2
20260509012028 61 134 0.0 0.0 0.00 0.00 0.00 66 1011.3
20260509011419 61 134 0.0 0.0 0.00 0.00 0.00 66 1011.4
20260509010758 62 134 0.0 0.0 0.00 0.00 0.00 65 1011.3
20260509010127 63 134 0.0 0.0 0.00 0.00 0.00 63 1011.3
20260509005510 63 134 0.0 0.0 0.00 0.00 0.00 62 1011.3
20260509004844 64 134 0.0 0.0 0.00 0.00 0.00 60 1011.3
20260509004225 65 134 0.0 0.0 0.00 0.00 0.00 60 1011.2
20260509003614 66 134 0.0 0.0 0.00 0.00 0.00 59 1011.3
20260509002945 66 134 0.0 0.0 0.00 0.00 0.00 57 1011.4
20260509002327 67 132 0.0 0.0 0.00 0.00 0.00 56 1011.3
20260509001700 68 129 0.0 0.0 0.00 0.00 0.00 54 1011.3
20260509001042 69 128 0.0 0.0 0.00 0.00 0.00 52 1011.4
20260509000427 70 126 0.0 0.0 0.00 0.00 0.00 50 1011.4
20260508235803 71 125 0.0 0.0 0.00 0.00 0.00 48 1011.4
20260508235142 72 124 0.0 0.0 0.00 0.00 0.00 48 1011.5
20260508234528 72 22 0.0 0.0 0.00 0.00 0.00 44 1011.6
20260508233859 73 168 0.0 0.0 0.00 0.00 0.00 44 1011.7
20260508233244 74 193 0.0 0.0 0.00 0.00 0.00 45 1011.7
20260508232620 74 197 0.0 0.0 0.00 0.00 0.00 41 1011.8
20260508231947 74 164 0.0 0.0 0.00 0.00 0.00 44 1011.8
20260508231334 74 139 0.0 0.0 0.00 0.00 0.00 44 1011.9
20260508230708 73 172 0.0 0.0 0.00 0.00 0.00 44 1011.8
20260508230039 74 169 0.0 0.0 0.00 0.00 0.00 43 1011.9
20260508225412 74 188 0.0 0.0 0.00 0.00 0.00 42 1012.0
20260508224739 75 195 0.0 0.0 0.00 0.00 0.00 41 1012.1
20260508224109 76 37 0.0 1.0 0.00 0.00 0.00 41 1012.1
20260508223453 76 136 0.0 0.0 0.00 0.00 0.00 40 1012.1
20260508222830 77 136 0.0 0.0 0.00 0.00 0.00 38 1012.1
20260508222153 78 159 0.0 0.0 0.00 0.00 0.00 38 1012.1
20260508221525 78 167 0.0 0.0 0.00 0.00 0.00 39 1012.1
20260508220900 77 165 0.0 0.0 0.00 0.00 0.00 42 1012.1
20260508220226 77 167 0.0 0.0 0.00 0.00 0.00 39 1012.1
20260508215604 77 204 0.0 0.0 0.00 0.00 0.00 40 1012.1
20260508214938 77 87 0.0 0.0 0.00 0.00 0.00 38 1012.1
20260508214310 77 138 0.0 0.0 0.00 0.00 0.00 38 1012.0
20260508213642 77 116 0.0 0.0 0.00 0.00 0.00 39 1012.1
20260508213025 77 186 0.0 0.0 0.00 0.00 0.00 38 1012.2
20260508212413 76 157 0.0 0.0 0.00 0.00 0.00 37 1012.2
20260508211803 76 190 0.0 0.0 0.00 0.00 0.00 41 1012.3
20260508211131 76 191 0.0 0.0 0.00 0.00 0.00 38 1012.4
20260508210458 75 162 0.0 0.0 0.00 0.00 0.00 43 1012.5
20260508205821 75 175 0.0 0.0 0.00 0.00 0.00 40 1012.6
20260508205202 76 140 0.0 0.0 0.00 0.00 0.00 40 1012.7
20260508204554 75 185 0.0 0.0 0.00 0.00 0.00 42 1012.7
20260508203946 75 148 0.0 0.0 0.00 0.00 0.00 40 1012.8
20260508203338 75 158 0.0 0.0 0.00 0.00 0.00 40 1012.9
20260508202708 75 181 0.0 0.0 0.00 0.00 0.00 44 1013.0
20260508202031 75 241 0.0 0.0 0.00 0.00 0.00 41 1013.1
20260508201357 75 89 0.0 0.0 0.00 0.00 0.00 40 1013.3
20260508200726 74 207 0.0 0.0 0.00 0.00 0.00 41 1013.5
20260508200100 74 210 0.0 0.0 0.00 0.00 0.00 40 1013.5
20260508195431 74 217 0.0 1.0 0.00 0.00 0.00 40 1013.6
20260508194811 74 70 0.0 0.0 0.00 0.00 0.00 42 1013.7
20260508194158 74 131 0.0 0.0 0.00 0.00 0.00 40 1013.8
20260508193535 74 149 0.0 1.0 0.00 0.00 0.00 40 1013.9
20260508192915 74 148 0.0 0.0 0.00 0.00 0.00 41 1014.1
20260508192242 74 133 0.0 0.0 0.00 0.00 0.00 39 1014.1
20260508191609 74 138 0.0 2.0 0.00 0.00 0.00 39 1014.3
20260508190943 74 229 0.0 0.0 0.00 0.00 0.00 39 1014.3
20260508190310 74 113 0.0 3.0 0.00 0.00 0.00 42 1014.5
20260508185654 74 209 0.0 1.0 0.00 0.00 0.00 39 1014.5
20260508185034 74 94 0.0 1.0 0.00 0.00 0.00 41 1014.6
20260508184359 74 250 0.0 3.0 0.00 0.00 0.00 41 1014.6
20260508183747 74 245 0.0 2.0 0.00 0.00 0.00 41 1014.8
20260508183122 74 127 0.0 0.0 0.00 0.00 0.00 39 1015.0
20260508182446 74 201 0.0 2.0 0.00 0.00 0.00 40 1015.1
20260508181809 74 144 0.0 0.0 0.00 0.00 0.00 42 1015.2
20260508181202 74 136 0.0 0.0 0.00 0.00 0.00 36 1015.3
20260508180545 74 205 0.0 0.0 0.00 0.00 0.00 38 1015.3
20260508175936 74 113 0.0 0.0 0.00 0.00 0.00 39 1015.4
20260508175312 73 146 0.0 0.0 0.00 0.00 0.00 40 1015.7
20260508174650 73 58 0.0 2.0 0.00 0.00 0.00 38 1015.7
20260508174033 73 207 0.0 1.0 0.00 0.00 0.00 39 1015.8
20260508173425 73 140 0.0 1.0 0.00 0.00 0.00 40 1016.0
20260508172805 72 131 0.0 0.0 0.00 0.00 0.00 39 1016.1
20260508172143 72 255 0.0 3.0 0.00 0.00 0.00 37 1016.2
20260508171528 72 221 0.0 0.0 0.00 0.00 0.00 39 1016.2
20260508170900 72 231 0.0 0.0 0.00 0.00 0.00 39 1016.4
20260508170240 72 195 0.0 0.0 0.00 0.00 0.00 40 1016.6
20260508165607 72 200 0.0 0.0 0.00 0.00 0.00 42 1016.6
20260508164955 72 155 0.0 0.0 0.00 0.00 0.00 41 1016.7
20260508164344 71 169 0.0 0.0 0.00 0.00 0.00 42 1016.8
20260508163713 71 70 0.0 0.0 0.00 0.00 0.00 40 1016.9
20260508163045 71 218 0.0 0.0 0.00 0.00 0.00 44 1017.0
20260508162419 71 293 0.0 0.0 0.00 0.00 0.00 47 1017.1
20260508161754 70 58 0.0 1.0 0.00 0.00 0.00 46 1017.3
20260508161142 70 138 0.0 0.0 0.00 0.00 0.00 45 1017.3
20260508160525 70 230 0.0 0.0 0.00 0.00 0.00 45 1017.4
20260508155911 70 131 0.0 0.0 0.00 0.00 0.00 45 1017.4
20260508155418 70 149 0.0 0.0 0.00 0.00 0.00 47 1017.5
20260508154908 70 148 0.0 0.0 0.00 0.00 0.00 47 1017.7
20260508154357 69 113 0.0 0.0 0.00 0.00 0.00 51 1017.7
20260508153838 69 297 0.0 0.0 0.00 0.00 0.00 52 1017.8
20260508153318 68 290 0.0 0.0 0.00 0.00 0.00 51 1017.9
20260508152811 67 203 0.0 0.0 0.00 0.00 0.00 51 1018.0
20260508152309 67 148 0.0 2.0 0.00 0.00 0.00 53 1018.0
20260508151756 67 61 0.0 0.0 0.00 0.00 0.00 53 1018.0
20260508151301 67 221 0.0 0.0 0.00 0.00 0.00 52 1018.1
20260508150804 67 198 0.0 0.0 0.00 0.00 0.00 52 1018.1
20260508150250 66 139 0.0 0.0 0.00 0.00 0.00 58 1018.2
20260508145739 66 131 0.0 0.0 0.00 0.00 0.00 56 1018.2
20260508145237 66 145 0.0 0.0 0.00 0.00 0.00 59 1018.1
20260508144732 65 142 0.0 0.0 0.00 0.00 0.00 60 1018.1
20260508144212 65 141 0.0 0.0 0.00 0.00 0.00 65 1018.1
20260508143705 63 141 0.0 0.0 0.00 0.00 0.00 65 1018.2
20260508143145 62 121 0.0 0.0 0.00 0.00 0.00 68 1018.2
20260508142639 61 205 0.0 0.0 0.00 0.00 0.00 68 1018.3
20260508142130 61 206 0.0 0.0 0.00 0.00 0.00 70 1018.3
20260508141632 60 52 0.0 0.0 0.00 0.00 0.00 72 1018.4
20260508141135 60 160 0.0 0.0 0.00 0.00 0.00 71 1018.5
20260508140636 59 161 0.0 0.0 0.00 0.00 0.00 71 1018.6
20260508140134 59 160 0.0 0.0 0.00 0.00 0.00 72 1018.6
20260508135641 59 161 0.0 0.0 0.00 0.00 0.00 71 1018.7
20260508135126 59 161 0.0 0.0 0.00 0.00 0.00 72 1018.6
20260508134612 58 160 0.0 0.0 0.00 0.00 0.00 73 1018.6
20260508134105 58 161 0.0 0.0 0.00 0.00 0.00 75 1018.8
20260508133602 57 160 0.0 0.0 0.00 0.00 0.00 78 1018.7
20260508133104 56 160 0.0 0.0 0.00 0.00 0.00 81 1018.8
20260508132608 55 160 0.0 0.0 0.00 0.00 0.00 86 1018.9
20260508132115 54 161 0.0 0.0 0.00 0.00 0.00 90 1018.9
20260508131621 53 161 0.0 0.0 0.00 0.00 0.00 94 1018.9
20260508131101 51 161 0.0 0.0 0.00 0.00 0.00 96 1018.9
20260508130550 50 161 0.0 0.0 0.00 0.00 0.00 96 1018.9
20260508130052 49 161 0.0 0.0 0.00 0.00 0.00 96 1018.9
20260508125551 48 161 0.0 0.0 0.00 0.00 0.00 96 1018.9
20260508125048 47 161 0.0 0.0 0.00 0.00 0.00 96 1018.8
20260508124527 47 161 0.0 0.0 0.00 0.00 0.00 96 1018.8
20260508124014 46 161 0.0 0.0 0.00 0.00 0.00 96 1018.8
20260508123509 46 161 0.0 0.0 0.00 0.00 0.00 96 1018.8
20260508123000 45 161 0.0 0.0 0.00 0.00 0.00 96 1018.8